Location: Stillwell
(40.4602°N, 82.0928°W)
Time: 02:50:18
(UTC-05:00)

Cosmos 2237 - Pass Details

Date: 25 May 2018
Orbit: 848 x 854 km, 70.8° (Epoch: 16 November)

Event Time Altitude Azimuth Distance (km) Brightness Sun altitude
Rises 22:43:22 0° 338° (NNW) 3,430 8.8 -17.8°
Reaches altitude 10° 22:45:51 10° 341° (NNW) 2,490 7.7 -18.1°
Maximum altitude 22:51:34 70° 65° (ENE) 909 4.3 -18.8°
Enters shadow 22:54:02 35° 139° (SE) 1,355 4.7 -19.1°
